TimeCST,TemperatureF,Dew PointF,Humidity,Sea Level PressureIn,VisibilityMPH,Wind Direction,Wind SpeedMPH,Gust SpeedMPH,PrecipitationIn,Events,Conditions,WindDirDegrees,DateUTC
12:55 AM,36.9,36.1,97,30.24,10.0,NNE,6.9,-,N/A,,Partly Cloudy,20,2013-01-14 06:55:00
1:06 AM,37.4,35.6,93,30.23,10.0,NNE,9.2,-,N/A,,Mostly Cloudy,30,2013-01-14 07:06:00
1:11 AM,37.4,35.6,93,30.24,10.0,NNE,9.2,-,N/A,,Mostly Cloudy,30,2013-01-14 07:11:00
1:55 AM,37.4,33.1,84,30.24,10.0,NE,15.0,-,N/A,,Mostly Cloudy,50,2013-01-14 07:55:00
2:06 AM,37.4,32.0,81,30.25,10.0,NE,15.0,20.7,N/A,,Mostly Cloudy,50,2013-01-14 08:06:00
2:08 AM,37.4,32.0,81,30.24,10.0,NE,16.1,24.2,N/A,,Mostly Cloudy,40,2013-01-14 08:08:00
2:55 AM,36.3,32.4,86,30.22,10.0,NE,8.1,-,N/A,,Overcast,50,2013-01-14 08:55:00
3:55 AM,34.9,30.2,83,30.20,10.0,NE,15.0,-,N/A,,Overcast,40,2013-01-14 09:55:00
4:55 AM,34.2,29.5,83,30.22,10.0,NE,9.2,-,N/A,,Overcast,50,2013-01-14 10:55:00
6:55 AM,32.9,27.7,81,30.26,10.0,NNE,11.5,-,N/A,,Overcast,20,2013-01-14 12:55:00
7:20 AM,32.0,26.6,80,30.27,10.0,NNE,13.8,-,N/A,Rain,Light Rain,20,2013-01-14 13:20:00
7:55 AM,32.2,27.7,83,30.28,10.0,North,13.8,-,0.01,Rain,Light Rain,360,2013-01-14 13:55:00
8:02 AM,32.0,26.6,80,30.28,10.0,North,17.3,-,N/A,Rain,Light Rain,10,2013-01-14 14:02:00
8:06 AM,32.0,26.6,80,30.30,10.0,North,13.8,-,N/A,,Overcast,350,2013-01-14 14:06:00
8:10 AM,32.0,26.6,80,30.32,10.0,NNW,12.7,-,N/A,,Light Drizzle,340,2013-01-14 14:10:00
8:23 AM,32.0,28.4,87,30.32,10.0,North,12.7,-,N/A,Rain,Light Rain,350,2013-01-14 14:23:00
8:45 AM,32.0,26.6,80,30.32,10.0,North,11.5,20.7,N/A,,Overcast,360,2013-01-14 14:45:00
8:55 AM,31.6,25.9,79,30.31,10.0,North,17.3,21.9,0.00,,Overcast,10,2013-01-14 14:55:00
8:57 AM,32.0,26.6,80,30.30,10.0,NNE,16.1,21.9,N/A,Rain,Light Rain,20,2013-01-14 14:57:00
9:20 AM,32.0,26.6,80,30.35,10.0,North,12.7,20.7,N/A,,Mostly Cloudy,360,2013-01-14 15:20:00
9:55 AM,31.3,25.9,80,30.34,10.0,North,16.1,-,0.00,,Overcast,10,2013-01-14 15:55:00
10:47 AM,32.0,24.8,75,30.32,10.0,North,11.5,21.9,N/A,Rain,Light Rain,10,2013-01-14 16:47:00
10:55 AM,31.1,25.5,80,30.32,10.0,NNE,13.8,-,0.00,Rain,Freezing Rain,20,2013-01-14 16:55:00
11:55 AM,31.5,25.9,80,30.28,10.0,NNE,11.5,-,0.00,,Mostly Cloudy,30,2013-01-14 17:55:00
12:05 PM,32.0,26.6,80,30.27,10.0,NE,12.7,-,N/A,,Mostly Cloudy,50,2013-01-14 18:05:00
12:55 PM,33.1,25.9,75,30.26,10.0,NE,10.4,-,0.00,,Overcast,50,2013-01-14 18:55:00
1:55 PM,34.0,26.4,74,30.26,10.0,NNE,8.1,-,N/A,,Overcast,20,2013-01-14 19:55:00
2:55 PM,35.4,26.2,69,30.26,10.0,NE,5.8,-,N/A,,Overcast,40,2013-01-14 20:55:00
3:55 PM,37.6,25.9,63,30.26,10.0,NE,9.2,-,N/A,,Mostly Cloudy,50,2013-01-14 21:55:00
4:55 PM,36.1,26.4,68,30.27,10.0,ENE,4.6,-,N/A,,Clear,60,2013-01-14 22:55:00
5:55 PM,34.5,25.9,71,30.27,10.0,NE,8.1,-,N/A,,Clear,50,2013-01-14 23:55:00
6:55 PM,33.6,25.5,72,30.27,10.0,NE,8.1,-,N/A,,Clear,50,2013-01-15 00:55:00
7:55 PM,32.7,25.5,75,30.26,10.0,ENE,4.6,-,N/A,,Clear,60,2013-01-15 01:55:00
8:55 PM,32.2,26.2,79,30.25,10.0,Calm,Calm,-,N/A,,Clear,0,2013-01-15 02:55:00
9:46 PM,32.0,26.6,80,30.25,10.0,NE,5.8,-,N/A,,Mostly Cloudy,40,2013-01-15 03:46:00
9:55 PM,31.6,26.1,80,30.25,10.0,Variable,4.6,-,N/A,,Mostly Cloudy,0,2013-01-15 03:55:00
9:58 PM,32.0,26.6,80,30.25,10.0,NE,4.6,-,N/A,,Scattered Clouds,50,2013-01-15 03:58:00
10:55 PM,31.1,25.0,78,30.23,10.0,NE,6.9,-,N/A,,Clear,50,2013-01-15 04:55:00
11:55 PM,30.4,24.4,79,30.22,10.0,NNE,9.2,-,N/A,,Clear,20,2013-01-15 05:55:00